Regional Weather Roundup
Issued by NWS

Home | Current Version | Previous Version | Text Only | Print | Product List | Glossary Off
Versions: 1 2 3 4 5 6 7 8 9 10 11 12 13 14 15 16 17 18 19 20 21 22 23 24 25 26 27 28 29 30 31 32 33 34 35 36 37 38 39 40 41 42 43 44 45 46 47 48 49 50

952
ASUS43 KDMX 250008
RWRIA

WEATHER ROUNDUP FOR IOWA
NATIONAL WEATHER SERVICE DES MOINES IA
700 PM CDT SUN JUL 24 2016

NOTE: "FAIR" INDICATES FEW OR NO CLOUDS BELOW 12,000 FEET WITH NO
SIGNIFICANT WEATHER AND/OR OBSTRUCTIONS TO VISIBILITY.

* - THESE STATIONS ARE NOT NWS STATIONS...THUS NOT UNDER NWS
QUALITY CONTROL.  THEY ALSO DO NOT REPORT WEATHER SUCH
AS PRECIPITATION OR FOG.

IAZ001>003-012>014-020>022-031>034-043>046-250100-
   NORTHWEST IOWA

CITY           SKY/WX    TMP DP  RH WIND       PRES   REMARKS
CARROLL *      CLOUDY    82  68  61 CALM      30.01R HX  85
CHEROKEE *     CLOUDY    75  64  69 NW8       30.04R
LE MARS *      CLOUDY    79  64  61 NW6       30.04S HX  81
SHELDON *      CLOUDY    75  66  73 CALM      30.02F
SIOUX CITY     CLOUDY    80  64  58 N10       30.02R HX  82
6HR MIN TEMP:  80; 6HR MAX TEMP:  90;

SPENCER        CLOUDY    75  64  68 NW7       30.03S
6HR MIN TEMP:  75; 6HR MAX TEMP:  83; 6HR PCP: TRACE;

STORM LAKE *   CLOUDY    77  68  73 NW9       30.04S
$$

IAZ055>058-069>071-079>083-090>094-250100-
   SOUTHWEST IOWA

CITY           SKY/WX    TMP DP  RH WIND       PRES   REMARKS
ATLANTIC *     CLOUDY    79  72  78 CALM      30.02S HX  82
CLARINDA *       N/A     79  72  78 MISG      30.02R HX  82
COUNCIL BLFS * CLOUDY    82  68  61 NE5       30.02F HX  85
CRESTON *      CLOUDY    79  72  78 CALM      30.03F HX  82
HARLAN  *      CLOUDY    81  68  65 CALM      30.06S HX  83
LAMONI         CLOUDY    79  70  74 N8        30.00R HX  82
6HR MIN TEMP:  79; 6HR MAX TEMP:  88;

RED OAK *      CLOUDY    79  73  83 N8        30.00F HX  82
SHENANDOAH *   CLOUDY    77  73  88 SW7       30.02R
$$

IAZ047>049-059>061-072>074-084-250100-
   CENTRAL IOWA

CITY           SKY/WX    TMP DP  RH WIND       PRES   REMARKS
AMES           CLOUDY    80  69  69 NW6       29.99R HX  83
6HR MIN TEMP:  80; 6HR MAX TEMP:  87;

ANKENY *         N/A    N/A N/A N/A MISG        N/A
BOONE *        CLOUDY    79  66  65 N9        30.00R HX  81
CHARITON *       N/A    N/A N/A N/A MISG        N/A
DES MOINES     CLOUDY    82  67  60 N7        29.98S HX  84
6HR MIN TEMP:  82; 6HR MAX TEMP:  90;

GRINNELL*      CLOUDY    78  68  71 NW3       29.98S HX  80
KNOXVILLE *    CLOUDY    81  68  65 NW9       29.97S HX  83
MARSHALLTOWN   MOSUNNY   78  68  71 VRB5      29.96F HX  80
6HR MIN TEMP:  78; 6HR MAX TEMP:  87;

NEWTON *       CLOUDY    79  70  73 N5        29.97S HX  81
PELLA *        CLOUDY    80  67  65 N7        29.98S HX  82
PERRY *          N/A     80  73  79 CALM      30.00S HX  83
$$

IAZ004>006-015-016-023>025-035-036-250100-
   NORTH CENTRAL IOWA

CITY           SKY/WX    TMP DP  RH WIND       PRES   REMARKS
ALGONA *       CLOUDY    77  66  69 NW6       30.01S
ESTHERVILLE    CLOUDY    74  68  81 W7        30.01S
6HR MIN TEMP:  74; 6HR MAX TEMP:  80; 6HR PCP: TRACE;

FORT DODGE *   CLOUDY    77  64  65 N3        30.01R
MASON CITY     CLOUDY    75  65  70 NW8       29.99S
6HR MIN TEMP:  75; 6HR MAX TEMP:  84;

FOREST CITY *    N/A     73  63  68 NW12G22   29.98F
IOWA FALLS *     N/A     78  66  66 NW8       29.97F HX  80
$$

IAZ007>011-017>019-026>030-037>042-050>054-066-250100-
   NORTHEAST IOWA

CITY           SKY/WX    TMP DP  RH WIND       PRES   REMARKS
CEDAR RAPIDS   PTSUNNY   80  71  74 NW12      29.93S HX  84
6HR MIN TEMP:  80; 6HR MAX TEMP:  89;

CHARLES CITY * CLOUDY    77  66  69 NW9       29.96F
CLINTON *      MOSUNNY   86  80  82 NW12G20   29.90R HX 101
DECORAH *      MOSUNNY   79  64  61 NW6       29.93F HX  81
DUBUQUE        SUNNY     81  68  64 NW15      29.93R HX  84
6HR MIN TEMP:  81; 6HR MAX TEMP:  88;

MONTICELLO *   MOSUNNY   81  68  65 NW10G17   29.93S HX  83
OELWEIN *      CLOUDY    77  68  73 NW5       29.96S
WATERLOO       PTSUNNY   78  66  66 W7        29.95R HX  80
6HR MIN TEMP:  78; 6HR MAX TEMP:  87;

$$

IAZ064-065-067-068-078-250100-
   EAST CENTRAL IOWA

CITY           SKY/WX    TMP DP  RH WIND       PRES   REMARKS
DAVENPORT      MOSUNNY   86  79  79 NW9       29.90R HX  99
6HR MIN TEMP:  86; 6HR MAX TEMP:  90;

IOWA CITY      MOSUNNY   85  69  58 NW13      29.94R HX  89
6HR MIN TEMP:  85; 6HR MAX TEMP:  91;

MT. PLEASANT * PTSUNNY   87  80  78 NW9       29.92R HX 103
MUSCATINE *    PTSUNNY   86  75  70 NW13G22   29.91R HX  95
QUAD CITIES    CLOUDY    88  80  77 W8        29.88R HX 104
6HR MIN TEMP:  87; 6HR MAX TEMP:  92;

$$

IAZ062-063-075>077-085>089-095>099-250100-
   SOUTHEAST IOWA

CITY           SKY/WX    TMP DP  RH WIND       PRES   REMARKS
BURLINGTON     MOSUNNY   86  80  82 NW7       29.90R HX 101
6HR MIN TEMP:  86; 6HR MAX TEMP:  92;

FAIRFIELD *    PTSUNNY   82  72  69 NW10      29.95R HX  87
KEOKUK *       SUNNY     88  79  74 W6        29.90R HX 102
CENTERVILLE *    N/A     81  72  74 N8        29.98S HX  84
OTTUMWA        CLOUDY    81  72  74 NW7       29.96R HX  85
6HR MIN TEMP:  81; 6HR MAX TEMP:  90;

WASHINGTON *   MOSUNNY   82  75  78 NW10G20   29.94S HX  89
$$

ABBREVIATIONS USED IN REMARKS
   TC - TEMPERATURES IN CELSIUS
  WCI - WIND CHILL INDEX
   HX - HEAT INDEX
  VSB - VISIBILITY
$$





USA.gov is the U.S. government's official web portal to all federal, state and local government web resources and services.